TimeEDT,TemperatureF,Dew PointF,Humidity,Sea Level PressureIn,VisibilityMPH,Wind Direction,Wind SpeedMPH,Gust SpeedMPH,PrecipitationIn,Events,Conditions,WindDirDegrees,DateUTC
12:53 AM,72.0,70.0,93,29.88,8.0,South,9.2,-,N/A,,Overcast,180,2013-09-02 04:53:00
1:53 AM,72.0,70.0,93,29.87,7.0,South,9.2,-,N/A,,Overcast,170,2013-09-02 05:53:00
2:53 AM,72.0,70.0,93,29.85,8.0,South,8.1,-,N/A,,Overcast,170,2013-09-02 06:53:00
3:29 AM,71.6,71.6,100,29.85,9.0,South,6.9,-,N/A,,Overcast,190,2013-09-02 07:29:00
3:40 AM,71.6,71.6,100,29.85,9.0,South,5.8,-,N/A,,Overcast,180,2013-09-02 07:40:00
3:53 AM,72.0,70.0,93,29.85,7.0,South,5.8,-,N/A,,Overcast,180,2013-09-02 07:53:00
4:02 AM,71.6,69.8,94,29.85,2.5,South,5.8,-,N/A,,Overcast,170,2013-09-02 08:02:00
4:09 AM,71.6,69.8,94,29.85,0.8,South,5.8,-,N/A,,Overcast,170,2013-09-02 08:09:00
4:34 AM,71.6,69.8,94,29.85,0.2,South,6.9,-,N/A,Fog,Fog,170,2013-09-02 08:34:00
4:41 AM,71.6,69.8,94,29.85,0.2,South,5.8,-,N/A,Fog,Fog,170,2013-09-02 08:41:00
4:53 AM,71.1,70.0,96,29.84,0.2,South,5.8,-,N/A,Fog,Fog,170,2013-09-02 08:53:00
5:03 AM,71.6,69.8,94,29.85,0.5,South,6.9,-,N/A,Fog,Fog,170,2013-09-02 09:03:00
5:17 AM,71.6,69.8,94,29.85,0.5,SSE,8.1,-,N/A,Fog,Fog,160,2013-09-02 09:17:00
5:48 AM,71.6,69.8,94,29.85,0.2,South,5.8,-,N/A,Fog,Fog,170,2013-09-02 09:48:00
5:53 AM,71.1,70.0,96,29.86,0.2,South,4.6,-,N/A,Fog,Fog,170,2013-09-02 09:53:00
6:22 AM,71.6,69.8,94,29.86,0.2,SSE,5.8,-,N/A,Fog,Fog,160,2013-09-02 10:22:00
6:30 AM,71.6,69.8,94,29.86,0.2,SSE,5.8,-,N/A,Fog,Fog,160,2013-09-02 10:30:00
6:51 AM,71.6,69.8,94,29.86,0.5,South,6.9,-,N/A,Fog,Fog,170,2013-09-02 10:51:00
6:53 AM,71.1,70.0,96,29.86,0.5,South,6.9,-,N/A,Fog,Fog,170,2013-09-02 10:53:00
7:53 AM,73.0,71.1,93,29.86,0.5,South,6.9,-,N/A,Fog,Fog,170,2013-09-02 11:53:00
8:25 AM,71.6,71.6,100,29.86,0.2,SSE,10.4,-,N/A,Fog,Fog,160,2013-09-02 12:25:00
8:35 AM,71.6,71.6,100,29.86,0.8,South,8.1,-,N/A,,Mist,170,2013-09-02 12:35:00
8:45 AM,71.6,71.6,100,29.85,1.5,South,9.2,-,N/A,,Overcast,170,2013-09-02 12:45:00
8:53 AM,72.0,71.1,97,29.85,2.0,South,10.4,-,N/A,,Overcast,170,2013-09-02 12:53:00
9:53 AM,73.9,71.1,91,29.85,5.0,South,10.4,-,N/A,,Overcast,170,2013-09-02 13:53:00
10:45 AM,78.8,73.4,83,29.84,5.0,South,13.8,19.6,N/A,,Mostly Cloudy,180,2013-09-02 14:45:00
10:53 AM,78.1,72.0,81,29.84,10.0,South,17.3,-,N/A,,Overcast,180,2013-09-02 14:53:00
11:00 AM,77.0,71.6,83,29.84,10.0,South,15.0,-,N/A,,Mostly Cloudy,180,2013-09-02 15:00:00
11:14 AM,78.8,71.6,78,29.84,10.0,South,13.8,-,N/A,,Mostly Cloudy,180,2013-09-02 15:14:00
11:30 AM,78.8,71.6,78,29.84,10.0,South,15.0,20.7,N/A,,Mostly Cloudy,190,2013-09-02 15:30:00
11:53 AM,80.1,72.0,76,29.83,10.0,South,15.0,-,N/A,,Overcast,180,2013-09-02 15:53:00
12:06 PM,78.8,71.6,78,29.83,10.0,South,13.8,-,N/A,,Overcast,190,2013-09-02 16:06:00
12:20 PM,78.8,71.6,78,29.83,10.0,South,13.8,-,N/A,,Overcast,190,2013-09-02 16:20:00
12:53 PM,80.1,73.0,79,29.81,10.0,South,16.1,20.7,N/A,,Mostly Cloudy,190,2013-09-02 16:53:00
1:16 PM,82.4,73.4,74,29.81,10.0,SSW,11.5,-,N/A,,Scattered Clouds,200,2013-09-02 17:16:00
1:53 PM,78.1,71.1,79,29.82,10.0,South,18.4,-,N/A,,Mostly Cloudy,180,2013-09-02 17:53:00
2:03 PM,78.8,71.6,78,29.81,10.0,South,13.8,23.0,N/A,,Mostly Cloudy,180,2013-09-02 18:03:00
2:20 PM,80.6,71.6,74,29.81,10.0,SSW,17.3,26.5,N/A,,Scattered Clouds,200,2013-09-02 18:20:00
2:53 PM,78.1,71.1,79,29.80,10.0,South,13.8,-,N/A,,Mostly Cloudy,190,2013-09-02 18:53:00
3:05 PM,77.0,69.8,78,29.80,10.0,South,15.0,23.0,N/A,,Mostly Cloudy,190,2013-09-02 19:05:00
3:17 PM,75.2,71.6,89,29.80,10.0,South,13.8,21.9,N/A,,Overcast,190,2013-09-02 19:17:00
3:53 PM,75.0,70.0,84,29.79,10.0,SSW,12.7,18.4,N/A,,Overcast,200,2013-09-02 19:53:00
4:02 PM,75.2,69.8,83,29.79,10.0,South,12.7,-,N/A,,Overcast,190,2013-09-02 20:02:00
4:36 PM,73.4,69.8,88,29.78,10.0,South,12.7,-,N/A,,Overcast,190,2013-09-02 20:36:00
4:53 PM,73.0,70.0,90,29.78,9.0,SSW,10.4,-,0.00,,Overcast,200,2013-09-02 20:53:00
5:53 PM,73.0,71.1,93,29.75,6.0,SSW,10.4,-,0.01,Rain,Light Rain,210,2013-09-02 21:53:00
6:33 PM,71.6,69.8,94,29.75,6.0,South,9.2,-,0.00,,Overcast,190,2013-09-02 22:33:00
6:53 PM,72.0,70.0,93,29.75,6.0,South,10.4,-,0.00,,Overcast,190,2013-09-02 22:53:00
7:30 PM,71.6,69.8,94,29.75,8.0,South,11.5,-,N/A,,Overcast,190,2013-09-02 23:30:00
7:53 PM,72.0,70.0,93,29.75,8.0,SSW,5.8,-,N/A,,Overcast,200,2013-09-02 23:53:00
8:28 PM,71.6,69.8,94,29.76,7.0,SSW,9.2,-,N/A,,Overcast,200,2013-09-03 00:28:00
8:53 PM,72.0,70.0,93,29.76,6.0,SSW,8.1,-,N/A,,Overcast,210,2013-09-03 00:53:00
9:53 PM,72.0,70.0,93,29.76,6.0,SSW,9.2,-,N/A,,Overcast,200,2013-09-03 01:53:00
10:03 PM,71.6,69.8,94,29.76,1.5,SSW,9.2,-,N/A,,Overcast,200,2013-09-03 02:03:00
10:12 PM,71.6,69.8,94,29.76,0.5,SSW,8.1,-,N/A,Fog,Fog,200,2013-09-03 02:12:00
10:28 PM,71.6,71.6,100,29.77,1.5,SW,5.8,-,N/A,,Overcast,220,2013-09-03 02:28:00
10:53 PM,71.1,70.0,96,29.76,0.8,SSW,5.8,-,N/A,,Mist,210,2013-09-03 02:53:00
11:51 PM,71.6,71.6,100,29.76,2.0,WSW,5.8,-,N/A,,Overcast,240,2013-09-03 03:51:00
11:52 PM,72.0,71.1,97,29.76,2.0,SW,5.8,-,N/A,,Overcast,230,2013-09-03 03:52:00